Dodge City, KS

5:43 PM CDT on April 25, 2017 (GMT -0500)
Dodge City Regional

Weather History for KDDC - November, 2012

Change the Weather History Date:

Friday, November 9, 2012

  Actual Average Record
Temperature  
Mean Temperature 60 °F -  
Max Temperature 84 °F 55 °F 84 °F (2012)
Min Temperature 37 °F 32 °F 9 °F (1991)
Degree Days  
Heating Degree Days 4    
Growing Degree Days 10 (Base 50)    
Moisture  
Dew Point 33 °F    
Average Humidity 42    
Maximum Humidity 82    
Minimum Humidity 7    
Precipitation  
Precipitation 0.00 in - - ()
Sea Level Pressure  
Sea Level Pressure 29.67 in    
Wind  
Wind Speed 9 mph (SSW)    
Max Wind Speed 28 mph    
Max Gust Speed 37 mph    
Visibility 10 miles    
Events      
Averages and records for this station are not official NWS values.
T = Trace of Precipitation, MM = Missing Value Source: NWS Daily Summary

Daily Weather History Graph

Daily Weather History Graph

Search for Another Location

Airport or City:

Trip Planner

Search our weather history database for the weather conditions in past years. The results will help you decide how hot, cold, wet, or windy it might be!

Date:

Astronomy

Nov. 09, 2012 Rise Set
Actual Time 7:14 AM CST 5:32 PM CST
Civil Twilight 6:46 AM CST 6:00 PM CST
Nautical Twilight 6:15 AM CST 6:31 PM CST
Astronomical Twilight 5:44 AM CST 7:02 PM CST
Moon 2:19 AM CST (11/9) 2:42 PM CST (11/9)
Length of Visible Light 11h 13m
Length of Day
10h 18m
Waning Crescent, 23% of the Moon is Illuminated
Nov 9
Waning Crescent
Nov 13
New
Nov 20
First Quarter
Nov 28
Full
Dec 6
Last Quarter

Hourly Weather History & Observations

Time (CST) Temp. Windchill Dew Point Humidity Pressure Visibility Wind Dir Wind Speed Gust Speed Precip Events Conditions
12:52 AM 41.0 °F 37.1 °F 34.0 °F 76% 29.77 in 10.0 mi North 5.8 mph - N/A   Clear
1:52 AM 39.9 °F - 34.0 °F 79% 29.76 in 10.0 mi Calm Calm - N/A   Clear
2:52 AM 39.9 °F 35.1 °F 33.1 °F 77% 29.76 in 10.0 mi South 6.9 mph - N/A   Clear
3:52 AM 41.0 °F 38.0 °F 34.0 °F 76% 29.73 in 10.0 mi SSE 4.6 mph - N/A   Clear
4:52 AM 39.9 °F 36.7 °F 33.1 °F 77% 29.73 in 9.0 mi South 4.6 mph - N/A   Clear
5:52 AM 39.0 °F 35.7 °F 33.1 °F 79% 29.75 in 10.0 mi NW 4.6 mph - N/A   Clear
6:52 AM 39.0 °F - 34.0 °F 82% 29.76 in 10.0 mi Calm Calm - N/A   Clear
7:52 AM 41.0 °F - 34.0 °F 76% 29.77 in 9.0 mi Calm Calm - N/A   Clear
8:52 AM 50.0 °F - 37.0 °F 61% 29.77 in 6.0 mi Calm Calm - N/A   Haze
9:52 AM 57.9 °F - 36.0 °F 44% 29.75 in 10.0 mi South 10.4 mph - N/A   Clear
10:52 AM 66.9 °F - 34.0 °F 30% 29.73 in 10.0 mi SSW 18.4 mph - N/A   Clear
11:52 AM 71.1 °F - 35.1 °F 27% 29.69 in 10.0 mi South 13.8 mph - N/A   Clear
12:52 PM 75.9 °F - 36.0 °F 23% 29.63 in 10.0 mi South 16.1 mph 21.9 mph N/A   Clear
1:52 PM 80.1 °F - 36.0 °F 20% 29.59 in 10.0 mi SSE 20.7 mph 28.8 mph N/A   Clear
2:52 PM 82.9 °F - 28.9 °F 14% 29.56 in 10.0 mi South 27.6 mph 36.8 mph N/A   Clear
3:52 PM 81.0 °F - 28.9 °F 15% 29.57 in 8.0 mi SW 25.3 mph 35.7 mph N/A   Clear
4:52 PM 78.1 °F - 28.9 °F 17% 29.58 in 10.0 mi SSW 20.7 mph 32.2 mph N/A   Clear
5:52 PM 72.0 °F - 30.0 °F 21% 29.60 in 10.0 mi SSW 13.8 mph - N/A   Clear
6:52 PM 66.0 °F - 30.0 °F 26% 29.62 in 10.0 mi South 11.5 mph - N/A   Clear
7:52 PM 68.0 °F - 28.9 °F 23% 29.61 in 10.0 mi SSW 17.3 mph - N/A   Clear
8:52 PM 66.0 °F - 28.0 °F 24% 29.62 in 10.0 mi South 15.0 mph 23.0 mph N/A   Clear
9:52 PM 64.0 °F - 30.9 °F 29% 29.62 in 10.0 mi SSW 16.1 mph 21.9 mph N/A   Clear
10:52 PM 64.0 °F - 35.1 °F 34% 29.61 in 10.0 mi South 12.7 mph 23.0 mph N/A   Clear
11:52 PM 63.0 °F - 37.0 °F 38% 29.61 in 10.0 mi South 11.5 mph - N/A   Clear